NOAA NWS Hourly Roundups by Site

Regional Weather Roundup for Upton, NY

To Select Another Site Choose from List

Select Site:  

000
ASUS41 KOKX 181013
RWROKX

Regional Weather Roundup
National Weather Service New York NY
500 AM EST TUE JAN 18 2022

Note: "FAIR" indicates few or no clouds below 12,000 feet with no
significant weather and/or obstructions to visibility.

NYZ071-072-176-178-NJZ106-104-181100-
New York City Metro Area

CITY           SKY/WX    TMP DP  RH WIND       PRES   REMARKS
Central Park   CLOUDY    31  15  52 W12G22    29.67R WCI  22
World Trd Ctr  NOT AVBL
Bronx Lehman C NOT AVBL
LaGuardia Arpt CLOUDY    33  14  45 W25G36    29.65R WCI  20
Queens College NOT AVBL
Kennedy Intl   CLOUDY    31  15  52 W20G29    29.66R WCI  19
Breezy Point     N/A     32 N/A N/A NW18G32     N/A  WCI  20
Brooklyn Coll  NOT AVBL
Staten Island  NOT AVBL
Newark/Liberty CLOUDY    30  15  53 NW21G28   29.67R WCI  17
Teterboro      CLOUDY    30  15  53 NW14G25   29.65R WCI  19
$$

NYZ177-179-078>081-181100-
Long Island New York

CITY           SKY/WX    TMP DP  RH WIND       PRES   REMARKS
Jones Beach      N/A     32 N/A N/A NW23G31     N/A  WCI  19
Wantagh        NOT AVBL
Hempstead      NOT AVBL
Matinecock Pt    N/A     32 N/A N/A W29G35      N/A  WCI  18
Farmingdale    MOCLDY    31  14  49 NW16G32   29.63R WCI  20
MacArthur/ISP  MOCLDY    30  15  53 W22G32    29.59R WCI  17
Stony Brook    NOT AVBL
Shirley        PTCLDY    30  14  51 W18G28    29.59R WCI  18
Mt Sinai Harb    N/A    N/A N/A N/A W14G23      N/A
Westhampton    CLEAR     30  16  56 W18G29    29.58R WCI  18
East Hampton   FAIR      31  17  55 W16G24    29.53R WCI  20
Southold       NOT AVBL
Montauk          N/A     33  22  63 W18G30    29.50R WCI  22
$$

NYZ052-065-067-181100-
Hudson Valley

CITY           SKY/WX    TMP DP  RH WIND       PRES   REMARKS
White Plains   CLEAR     28  14  54 NW26G38   29.59R WCI  13
Larchmont Harb   N/A    N/A N/A N/A W18G26      N/A
Croton On Huds   N/A    N/A N/A N/A NW20        N/A
Somers         NOT AVBL
Brewster       NOT AVBL
Newburgh       CLOUDY    27  16  63 W18G30    29.60R WCI  13
Montgomery     CLOUDY    26  14  60 NW17G29   29.61R WCI  13
Otisville      NOT AVBL
Warwick        NOT AVBL
Suffern        NOT AVBL
Poughkeepsie   CLOUDY    29  14  53 W7        29.61R WCI  22
Albany         MOCLDY    21  11  65 W21G28    29.62R WCI   5
$$

NJZ001-105-106-008-010-013-015-019>022-104-181100-
New Jersey

CITY           SKY/WX    TMP DP  RH WIND       PRES   REMARKS
Newark/Liberty CLOUDY    30  15  53 NW21G28   29.67R WCI  17
Teterboro      CLOUDY    30  15  53 NW14G25   29.65R WCI  19
Caldwell       CLOUDY    32  15  49 NW14G23   29.67R WCI  22
Somerville     MOCLDY    31  16  54 NW9G20    29.68R WCI  23
Linden         FAIR      31  15  52 NW16G25   29.69R WCI  20
Perth Amboy      N/A    N/A N/A N/A W20G25      N/A
Sussex         CLOUDY    28  18  66 VRB3      29.65R
Andover          N/A     30  16  56 VRB5      29.66R WCI  25
Trenton        MOCLDY    30  18  60 NW8G17    29.72R WCI  22
Millville      CLOUDY    35  21  56 W15G25    29.78R WCI  25
Atlantic City  CLOUDY    33  21  61 W12       29.74R WCI  24
Wrightstown    CLOUDY    32  17  55 NW17G23   29.72R WCI  21
Toms River     NOT AVBL
Belmar         CLOUDY    31  17  56 W21G33    29.70R WCI  18
$$

PAZ047>061-062-071-181100-
Eastern Pennsylvania

CITY           SKY/WX    TMP DP  RH WIND       PRES   REMARKS
Philadelphia   CLOUDY    37  21  52 W13       29.76R WCI  29
Allentown      MOCLDY    30  17  58 W10       29.71R WCI  21
Scranton       CLOUDY    28  15  58 NW15G28   29.68R WCI  16
$$

CTZ002-004>006-009-010-012-RIZ004-006-007-MAZ004-011-015-181100-
Southern New England

 In CT

CITY           SKY/WX    TMP DP  RH WIND       PRES   REMARKS
Bradley Intl   PTCLDY    28  15  58 NW16G26   29.52R WCI  16
Hartford       MOCLDY    30  15  53 NW17G24   29.54R WCI  18
Danbury        MOCLDY    30  14  51 W14G26    29.56R WCI  19
Wtrbury/Oxford PTCLDY    26  17  68 W13G21    29.52R WCI  15
Norwalk Harbor   N/A    N/A N/A N/A W25G39      N/A
Bridgeport     MOCLDY    29  16  58 W14G25    29.57R WCI  18
Meriden        CLEAR     30  15  53 NW12G18   29.54R WCI  20
New Haven      CLEAR     32  18  56 W10G17    29.56R WCI  24
Chester        FAIR      28  18  64 W13G21    29.50R WCI  18
Groton         CLEAR     30  16  56 W16G25    29.50R WCI  19
Willimantic    PTCLDY    27  16  63 W9G23     29.49R WCI  18

 In RI

CITY           SKY/WX    TMP DP  RH WIND       PRES   REMARKS
Providence     CLEAR     28  14  55 NW18G31   29.45R WCI  15
Block Island   PTCLDY    30  19  63 NW23G35   29.48R WCI  17
Westerly       CLEAR     30  15  53 NW10G23   29.48R WCI  21

In MA

CITY           SKY/WX    TMP DP  RH WIND       PRES   REMARKS
Boston         PTCLDY    30  16  56 W21G26    29.38R WCI  17
Worcester      CLEAR     23  12  62 W20G40    29.38R WCI   8
Westfield      CLOUDY    26  15  63 NW20G30   29.51R WCI  12
Provincetown   CLOUDY   N/A N/A N/A W24G37    29.36R
Nantucket      CLOUDY    35  21  56 W21G35    29.38R WCI  24
$$

ANZ330-335-338-340-345-350-353-355-181100-
Coastal Marine Observations


STATION/POSITION TIME  SKY/WX   TEMP    WIND        PRES    VSBY  WAVE
                                AIR SEA DIR/SP/G                  HT/PER
                 (UTC)          (F)     (DEG/KT/KT) (MB)    (MI)  (FT/S)
NY Harb Entrance 0950               44  290/ 25/ 35 1003.4          7/ 5
20 S Fire Island 0950               47              1002.6         11/ 7
Great South Bay  NOT AVBL
23 SSW Montauk P 0950            35     280/ 29/ 39 1000.2         13/12
15 E Barnegat Li 0956               46                N/A           8/ 6
Hudson Canyon    0950            38 50  300/ 31/ 41 1003.6         14/ 8
Kings Point      0930            31     350/ 18/ 32 1004.3
Execution Rocks  0945            32     280/ 16/ 17   N/A
Western LI Sound 0945            32     290/ 21/ 29   N/A
Central LI Sound 0900            34 41  260/ 25/ 37   N/A           5/ 5
Robbins Reef     0930            32     310/ 22/ 26 1003.9
$$


>>>>>>>>>>>>>>>>>>>>>>>>>>>> KEY <<<<<<<<<<<<<<<<<<<<<<<<<<<
>                                                          <
>     SKY/WX - Sky Condition/Present Weather               <
>     TMP    - Temperature in Fahrenheit                   <
>     DP     - Dew Point in Fahrenheit                     <
>     RH     - Relative Humidity in Percent                <
>     WIND   - Direction (from) and Speed in MPH           <
>     PRES   - Mean Sea Level Pressure (inches of Hg)      <
>     WCI    - Wind Chill Index                            <
>     VSB    - Visibility in Miles                         <
>     HX     - Heat Index                                  <
>     TC     - Temperature in Celsius                      <
>     VRB    - Variable Wind Direction                     <
>                                                          <
>>>>>>>>>>>>>>>>>>>>>>>>>>>> KEY <<<<<<<<<<<<<<<<<<<<<<<<<<<


 

View Past Reports for Upton, NY.

Products Courtesy of NOAA-NWS
NWS Information Parsing Script by Ken True at Saratoga Weather - Script by SE Lincoln Weather.